RA1073G ULWC-ULWC

Flight info

Callsign RA1073G
Flight time 0h 6m
Altitude 2000
Route DCT
Aircraft C172/L-SDGY/C

Departure

Time 2026-04-20 17:55
Airport Cherepovets Airport (ULWC)

Arrival

Time 2026-04-20 18:02
Airport Cherepovets Airport (ULWC)
Time Latitude Longitude Altitude Speed Heading
2026-04-20 17:47 59.28094 38.02209 381 ft 0 kts 312°
2026-04-20 17:52 59.28100 38.02196 381 ft 7 kts 308°
2026-04-20 17:53 59.28083 38.02128 381 ft 4 kts 220°
2026-04-20 17:53 59.28061 38.02091 381 ft 3 kts 217°
2026-04-20 17:53 59.28054 38.02082 381 ft 1 kts 172°
2026-04-20 17:53 59.28019 38.02152 381 ft 10 kts 123°
2026-04-20 17:54 59.28055 38.02296 381 ft 8 kts 124°
2026-04-20 17:54 59.28035 38.02341 381 ft 0 kts 130°
2026-04-20 17:54 59.27970 38.02481 381 ft 20 kts 124°
2026-04-20 17:54 59.27983 38.02545 381 ft 2 kts 26°
2026-04-20 17:55 59.28134 38.02807 381 ft 59 kts 43°
2026-04-20 17:55 59.28462 38.03380 555 ft 66 kts 42°
2026-04-20 17:55 59.28813 38.03996 782 ft 69 kts 41°
2026-04-20 17:55 59.29178 38.04638 1012 ft 72 kts 41°
2026-04-20 17:56 59.29552 38.05310 1239 ft 75 kts 47°
2026-04-20 17:56 59.29721 38.06278 1467 ft 78 kts 93°
2026-04-20 17:56 59.29499 38.07257 1697 ft 80 kts 128°
2026-04-20 17:56 59.29125 38.08096 1925 ft 83 kts 132°
2026-04-20 17:57 59.28695 38.09014 2009 ft 101 kts 132°
2026-04-20 17:57 59.28091 38.09876 2010 ft 117 kts 163°
2026-04-20 17:57 59.27261 38.09716 2007 ft 126 kts 206°
2026-04-20 17:57 59.26527 38.08729 2010 ft 129 kts 217°
2026-04-20 17:58 59.25842 38.07670 2004 ft 125 kts 218°
2026-04-20 17:58 59.25151 38.06596 2009 ft 129 kts 213°
2026-04-20 17:58 59.24469 38.05620 2011 ft 130 kts 218°
2026-04-20 17:58 59.23736 38.04495 1919 ft 135 kts 218°
2026-04-20 17:59 59.22998 38.03394 1811 ft 132 kts 218°
2026-04-20 17:59 59.22359 38.02201 1820 ft 122 kts 246°
2026-04-20 17:59 59.22552 38.00732 1876 ft 119 kts 310°
2026-04-20 17:59 59.23091 37.99487 1739 ft 132 kts 309°
2026-04-20 18:00 59.23736 37.98616 1646 ft 76 kts 147°
2026-04-20 18:00 59.24239 37.98818 957 ft 136 kts 341°
2026-04-20 18:00 59.25143 37.98617 607 ft 144 kts 351°
2026-04-20 18:00 59.25826 37.98805 598 ft 72 kts 27°
2026-04-20 18:01 59.26171 37.99348 511 ft 59 kts 40°
2026-04-20 18:01 59.26483 37.99892 469 ft 62 kts 41°
2026-04-20 18:01 59.26811 38.00473 410 ft 63 kts 43°
2026-04-20 18:01 59.27141 38.01050 384 ft 62 kts 41°
2026-04-20 18:02 59.27444 38.01590 381 ft 50 kts 43°
2026-04-20 18:02 59.27658 38.01968 381 ft 45 kts 42°
2026-04-20 18:02 59.27840 38.02221 381 ft 9 kts 300°